sat.trackr.live / text

‹ back to catalog

STARLINK-36422

NORAD 67344 · 2026-003L

PAYLOAD ACTIVE UNKNOWN

§ Identity

Operator
Country
US
Launch date
2026-01-09
Launch site
AFETR
Launch vehicle
Mass (kg)
RCS (m²)

Purposes: comms

External: N2YO · Heavens-Above · Gunter

§ Orbital elements

Epoch: 2026-05-25T00:53:35.433024Z

Period
94.27 min
Inclination
43.0000°
Eccentricity
0.0001718
Mean motion
15.27590036 rev/d
Perigee alt
481.8 km
Apogee alt
484.2 km
Semi-major
6,861.2 km
B*
7.9905e-4
RAAN
155.6014°
Arg perigee
263.0285°
Mean anomaly
97.0371°
Rev number
2,050

§ Raw data

STARLINK-364221 67344U 26003L   26145.03721566  .00021798  00000+0  79905-3 0  99922 67344  43.0000 155.6014 0001718 263.0285  97.0371 15.27590036 20500

JSON: /api/v1/satellites/67344 · /tle

For live sub-satellite position, see the globe view (requires WebGL).

§ Visibility from observer

Set your observer location to see the next 7 days of passes ≥ 10°. The values pass through the URL so the page stays shareable.

No JS? Fill the form by hand. The geolocation button needs JavaScript.